Starlink 6354

operational
NORAD ID: 56784 Int'l Des: 2023-078 Owner: SPXS Country: US Constellation: starlink
LEOCIRCULAR

Über Starlink 6354

Beschreibung wird geladen...

Live-Position

3D-Globus wird geladen...

Nächste Überflüge

Höhenverlauf

Altitude vs Time

uPlot chart will show altitude changes over time

Zweizeiliger Elementsatz

1 56784U 23078T 26034.46018972 .00000371 00000-0 38846-4 0 9996
2 56784 69.9996 50.8678 0003047 270.2417 89.8393 14.98331309148049
Epoch: 3. Feb. 2026 • Age: 10 hours

Aktueller Status

Höhe 582.1 km
Geschwindigkeit 7.57 km/s
Subsatellitenpunkt 53.95°N, 107.99°E
Startdatum 31. Mai 2023
Alter 2.6 years
Typ internet

Technische Details

Klassifizierung Payload
Masse 305.00 kg
Trockenmasse 290.00 kg
Gesamtmasse 305.00 kg
Länge 0.20 m
Durchmesser 2.80 m
Spannweite 9.00 m
Form Box + pan
Hersteller SPXS
Bus-Typ Starlink
Phasenstatus In Orbit
Besitzer/Staat SPXS/US

Große Konstellationen

Loading constellations...